Year,Month,Day,Hour,Minute,Value (Times are PST for temperature in C)
2023,04,29,00,00,10.60
2023,04,29,00,01,10.60
2023,04,29,00,02,10.60
2023,04,29,00,03,10.60
2023,04,29,00,04,10.60
2023,04,29,00,05,10.60
2023,04,29,00,06,10.60
2023,04,29,00,07,10.50
2023,04,29,00,08,10.50
2023,04,29,00,09,10.50
2023,04,29,00,10,10.50
2023,04,29,00,11,10.50
2023,04,29,00,12,10.40
2023,04,29,00,13,10.40
2023,04,29,00,14,10.40
2023,04,29,00,15,10.40
2023,04,29,00,16,10.40
2023,04,29,00,17,10.40
2023,04,29,00,18,10.40
2023,04,29,00,19,10.40
2023,04,29,00,20,10.40
2023,04,29,00,21,10.40
2023,04,29,00,22,10.40
2023,04,29,00,23,10.40
2023,04,29,00,24,10.40
2023,04,29,00,25,10.40
2023,04,29,00,26,10.40
2023,04,29,00,27,10.40
2023,04,29,00,28,10.40
2023,04,29,00,29,10.40
2023,04,29,00,30,10.40
2023,04,29,00,31,10.40
2023,04,29,00,32,10.40
2023,04,29,00,33,10.40
2023,04,29,00,34,10.40
2023,04,29,00,35,10.40
2023,04,29,00,36,10.40
2023,04,29,00,37,10.30
2023,04,29,00,38,10.30
2023,04,29,00,39,10.30
2023,04,29,00,40,10.30
2023,04,29,00,41,10.30
2023,04,29,00,42,10.30
2023,04,29,00,43,10.30
2023,04,29,00,44,10.30
2023,04,29,00,45,10.30
2023,04,29,00,46,10.20
2023,04,29,00,47,10.20
2023,04,29,00,48,10.20
2023,04,29,00,49,10.20
2023,04,29,00,50,10.20
2023,04,29,00,51,10.20
2023,04,29,00,52,10.20
2023,04,29,00,53,10.20
2023,04,29,00,54,10.20
2023,04,29,00,55,10.20
2023,04,29,00,56,10.20
2023,04,29,00,57,10.20
2023,04,29,00,58,10.10
2023,04,29,00,59,10.10
2023,04,29,01,00,10.10
2023,04,29,01,01,10.10
2023,04,29,01,02,10.10
2023,04,29,01,03,10.10
2023,04,29,01,04,10.10
2023,04,29,01,05,10.10
2023,04,29,01,06,10.10
2023,04,29,01,07,10.10
2023,04,29,01,08,10.10
2023,04,29,01,09,10.10
2023,04,29,01,10,10.10
2023,04,29,01,11,10.20
2023,04,29,01,12,10.20
2023,04,29,01,13,10.20
2023,04,29,01,14,10.20
2023,04,29,01,15,10.20
2023,04,29,01,16,10.20
2023,04,29,01,17,10.20
2023,04,29,01,18,10.30
2023,04,29,01,19,10.30
2023,04,29,01,20,10.30
2023,04,29,01,21,10.30
2023,04,29,01,22,10.30
2023,04,29,01,23,10.30
2023,04,29,01,24,10.30
2023,04,29,01,25,10.30
2023,04,29,01,26,10.30
2023,04,29,01,27,10.30
2023,04,29,01,28,10.20
2023,04,29,01,29,10.20
2023,04,29,01,30,10.20
2023,04,29,01,31,10.20
2023,04,29,01,32,10.20
2023,04,29,01,33,10.20
2023,04,29,01,34,10.20
2023,04,29,01,35,10.30
2023,04,29,01,36,10.30
2023,04,29,01,37,10.30
2023,04,29,01,38,10.30
2023,04,29,01,39,10.30
2023,04,29,01,40,10.40
2023,04,29,01,41,10.40
2023,04,29,01,42,10.50
2023,04,29,01,43,10.50
2023,04,29,01,44,10.50
2023,04,29,01,45,10.50
2023,04,29,01,46,10.50
2023,04,29,01,47,10.40
2023,04,29,01,48,10.40
2023,04,29,01,49,10.40
2023,04,29,01,50,10.40
2023,04,29,01,51,10.40
2023,04,29,01,52,10.40
2023,04,29,01,53,10.40
2023,04,29,01,54,10.40
2023,04,29,01,55,10.40
2023,04,29,01,56,10.40
2023,04,29,01,57,10.40
2023,04,29,01,58,10.30
2023,04,29,01,59,10.30
2023,04,29,02,00,10.30
2023,04,29,02,01,10.30
2023,04,29,02,02,10.30
2023,04,29,02,03,10.30
2023,04,29,02,04,10.30
2023,04,29,02,05,10.30
2023,04,29,02,06,10.30
2023,04,29,02,07,10.30
2023,04,29,02,08,10.20
2023,04,29,02,09,10.20
2023,04,29,02,10,10.20
2023,04,29,02,11,10.20
2023,04,29,02,12,10.20
2023,04,29,02,13,10.20
2023,04,29,02,14,10.20
2023,04,29,02,15,10.20
2023,04,29,02,16,10.10
2023,04,29,02,17,10.10
2023,04,29,02,18,10.10
2023,04,29,02,19,10.10
2023,04,29,02,20,10.10
2023,04,29,02,21,10.10
2023,04,29,02,22,10.10
2023,04,29,02,23,10.10
2023,04,29,02,24,10.10
2023,04,29,02,25,10.10
2023,04,29,02,26,10.00
2023,04,29,02,27,10.00
2023,04,29,02,28,10.00
2023,04,29,02,29,10.00
2023,04,29,02,30,10.00
2023,04,29,02,31,10.00
2023,04,29,02,32,10.00
2023,04,29,02,33,9.90
2023,04,29,02,34,9.90
2023,04,29,02,35,9.90
2023,04,29,02,36,9.90
2023,04,29,02,37,9.90
2023,04,29,02,38,9.90
2023,04,29,02,39,9.90
2023,04,29,02,40,9.80
2023,04,29,02,41,9.80
2023,04,29,02,42,9.80
2023,04,29,02,43,9.80
2023,04,29,02,44,9.80
2023,04,29,02,45,9.80
2023,04,29,02,46,9.80
2023,04,29,02,47,9.80
2023,04,29,02,48,9.80
2023,04,29,02,49,9.80
2023,04,29,02,50,9.80
2023,04,29,02,51,9.80
2023,04,29,02,52,9.80
2023,04,29,02,53,9.80
2023,04,29,02,54,9.80
2023,04,29,02,55,9.80
2023,04,29,02,56,9.80
2023,04,29,02,57,9.80
2023,04,29,02,58,9.80
2023,04,29,02,59,9.80
2023,04,29,03,00,9.80
2023,04,29,03,01,9.80
2023,04,29,03,02,9.80
2023,04,29,03,03,9.80
2023,04,29,03,04,9.80
2023,04,29,03,05,9.80
2023,04,29,03,06,9.80
2023,04,29,03,07,9.80
2023,04,29,03,08,9.80
2023,04,29,03,09,9.80
2023,04,29,03,10,9.80
2023,04,29,03,11,9.80
2023,04,29,03,12,9.80
2023,04,29,03,13,9.80
2023,04,29,03,14,9.80
2023,04,29,03,15,9.80
2023,04,29,03,16,9.80
2023,04,29,03,17,9.80
2023,04,29,03,18,9.80
2023,04,29,03,19,9.80
2023,04,29,03,20,9.70
2023,04,29,03,21,9.70
2023,04,29,03,22,9.70
2023,04,29,03,23,9.70
2023,04,29,03,24,9.70
2023,04,29,03,25,9.70
2023,04,29,03,26,9.70
2023,04,29,03,27,9.70
2023,04,29,03,28,9.70
2023,04,29,03,29,9.70
2023,04,29,03,30,9.70
2023,04,29,03,31,9.60
2023,04,29,03,32,9.60
2023,04,29,03,33,9.70
2023,04,29,03,34,9.70
2023,04,29,03,35,9.70
2023,04,29,03,36,9.70
2023,04,29,03,37,9.70
2023,04,29,03,38,9.70
2023,04,29,03,39,9.70
2023,04,29,03,40,9.70
2023,04,29,03,41,9.70
2023,04,29,03,42,9.70
2023,04,29,03,43,9.70
2023,04,29,03,44,9.70
2023,04,29,03,45,9.70
2023,04,29,03,46,9.70
2023,04,29,03,47,9.70
2023,04,29,03,48,9.70
2023,04,29,03,49,9.70
2023,04,29,03,50,9.70
2023,04,29,03,51,9.60
2023,04,29,03,52,9.60
2023,04,29,03,53,9.60
2023,04,29,03,54,9.60
2023,04,29,03,55,9.60
2023,04,29,03,56,9.50
2023,04,29,03,57,9.50
2023,04,29,03,58,9.50
2023,04,29,03,59,9.40
2023,04,29,04,00,9.40
2023,04,29,04,01,9.40
2023,04,29,04,02,9.40
2023,04,29,04,03,9.30
2023,04,29,04,04,9.30
2023,04,29,04,05,9.30
2023,04,29,04,06,9.30
2023,04,29,04,07,9.30
2023,04,29,04,08,9.30
2023,04,29,04,09,9.30
2023,04,29,04,10,9.30
2023,04,29,04,11,9.30
2023,04,29,04,12,9.30
2023,04,29,04,13,9.30
2023,04,29,04,14,9.30
2023,04,29,04,15,9.30
2023,04,29,04,16,9.30
2023,04,29,04,17,9.30
2023,04,29,04,18,9.30
2023,04,29,04,19,9.30
2023,04,29,04,20,9.30
2023,04,29,04,21,9.30
2023,04,29,04,22,9.30
2023,04,29,04,23,9.20
2023,04,29,04,24,9.20
2023,04,29,04,25,9.20
2023,04,29,04,26,9.20
2023,04,29,04,27,9.20
2023,04,29,04,28,9.20
2023,04,29,04,29,9.10
2023,04,29,04,30,9.10
2023,04,29,04,31,9.10
2023,04,29,04,32,9.10
2023,04,29,04,33,9.10
2023,04,29,04,34,9.10
2023,04,29,04,35,9.00
2023,04,29,04,36,9.00
2023,04,29,04,37,9.00
2023,04,29,04,38,9.00
2023,04,29,04,39,9.00
2023,04,29,04,40,8.90
2023,04,29,04,41,8.90
2023,04,29,04,42,8.90
2023,04,29,04,43,8.90
2023,04,29,04,44,8.90
2023,04,29,04,45,8.90
2023,04,29,04,46,8.90
2023,04,29,04,47,8.90
2023,04,29,04,48,8.90
2023,04,29,04,49,8.90
2023,04,29,04,50,8.90
2023,04,29,04,51,8.90
2023,04,29,04,52,8.90
2023,04,29,04,53,8.90
2023,04,29,04,54,8.90
2023,04,29,04,55,8.90
2023,04,29,04,56,8.90
2023,04,29,04,57,8.90
2023,04,29,04,58,8.90
2023,04,29,04,59,8.90
2023,04,29,05,00,8.90
2023,04,29,05,01,8.90
2023,04,29,05,02,8.90
2023,04,29,05,03,8.90
2023,04,29,05,04,8.90
2023,04,29,05,05,8.90
2023,04,29,05,06,8.80
2023,04,29,05,07,8.80
2023,04,29,05,08,8.80
2023,04,29,05,09,8.80
2023,04,29,05,10,8.80
2023,04,29,05,11,8.80
2023,04,29,05,12,8.80
2023,04,29,05,13,8.70
2023,04,29,05,14,8.70
2023,04,29,05,15,8.70
2023,04,29,05,16,8.70
2023,04,29,05,17,8.60
2023,04,29,05,18,8.60
2023,04,29,05,19,8.60
2023,04,29,05,20,8.60
2023,04,29,05,21,8.50
2023,04,29,05,22,8.50
2023,04,29,05,23,8.50
2023,04,29,05,24,8.40
2023,04,29,05,25,8.40
2023,04,29,05,26,8.40
2023,04,29,05,27,8.40
2023,04,29,05,28,8.40
2023,04,29,05,29,8.40
2023,04,29,05,30,8.40
2023,04,29,05,31,8.40
2023,04,29,05,32,8.40
2023,04,29,05,33,8.40
2023,04,29,05,34,8.40
2023,04,29,05,35,8.40
2023,04,29,05,36,8.40
2023,04,29,05,37,8.40
2023,04,29,05,38,8.40
2023,04,29,05,39,8.40
2023,04,29,05,40,8.40
2023,04,29,05,41,8.40
2023,04,29,05,42,8.40
2023,04,29,05,43,8.40
2023,04,29,05,44,8.40
2023,04,29,05,45,8.40
2023,04,29,05,46,8.40
2023,04,29,05,47,8.40
2023,04,29,05,48,8.40
2023,04,29,05,49,8.40
2023,04,29,05,50,8.40
2023,04,29,05,51,8.40
2023,04,29,05,52,8.40
2023,04,29,05,53,8.40
2023,04,29,05,54,8.40
2023,04,29,05,55,8.40
2023,04,29,05,56,8.40
2023,04,29,05,57,8.40
2023,04,29,05,58,8.40
2023,04,29,05,59,8.40
2023,04,29,06,00,8.40
2023,04,29,06,01,8.40
2023,04,29,06,02,8.40
2023,04,29,06,03,8.40
2023,04,29,06,04,8.30
2023,04,29,06,05,8.30
2023,04,29,06,06,8.30
2023,04,29,06,07,8.30
2023,04,29,06,08,8.30
2023,04,29,06,09,8.30
2023,04,29,06,10,8.30
2023,04,29,06,11,8.30
2023,04,29,06,12,8.30
2023,04,29,06,13,8.20
2023,04,29,06,14,8.20
2023,04,29,06,15,8.20
2023,04,29,06,16,8.20
2023,04,29,06,17,8.20
2023,04,29,06,18,8.20
2023,04,29,06,19,8.20
2023,04,29,06,20,8.20
2023,04,29,06,21,8.20
2023,04,29,06,22,8.20
2023,04,29,06,23,8.20
2023,04,29,06,24,8.20
2023,04,29,06,25,8.20
2023,04,29,06,26,8.20
2023,04,29,06,27,8.20
2023,04,29,06,28,8.20
2023,04,29,06,29,8.20
2023,04,29,06,30,8.20
2023,04,29,06,31,8.20
2023,04,29,06,32,8.20
2023,04,29,06,33,8.20
2023,04,29,06,34,8.20
2023,04,29,06,35,8.20
2023,04,29,06,36,8.20
2023,04,29,06,37,8.20
2023,04,29,06,38,8.20
2023,04,29,06,39,8.20
2023,04,29,06,40,8.20
2023,04,29,06,41,8.20
2023,04,29,06,42,8.20
2023,04,29,06,43,8.20
2023,04,29,06,44,8.20
2023,04,29,06,45,8.30
2023,04,29,06,46,8.30
2023,04,29,06,47,8.30
2023,04,29,06,48,8.30
2023,04,29,06,49,8.30
2023,04,29,06,50,8.30
2023,04,29,06,51,8.30
2023,04,29,06,52,8.30
2023,04,29,06,53,8.30
2023,04,29,06,54,8.30
2023,04,29,06,55,8.30
2023,04,29,06,56,8.40
2023,04,29,06,57,8.40
2023,04,29,06,58,8.40
2023,04,29,06,59,8.40
2023,04,29,07,00,8.40
2023,04,29,07,01,8.50
2023,04,29,07,02,8.50
2023,04,29,07,03,8.60
2023,04,29,07,04,8.60
2023,04,29,07,05,8.70
2023,04,29,07,06,8.80
2023,04,29,07,07,8.80
2023,04,29,07,08,8.90
2023,04,29,07,09,9.00
2023,04,29,07,10,9.10
2023,04,29,07,11,9.20
2023,04,29,07,12,9.30
2023,04,29,07,13,9.40
2023,04,29,07,14,9.60
2023,04,29,07,15,9.70
2023,04,29,07,16,9.80
2023,04,29,07,17,9.90
2023,04,29,07,18,10.00
2023,04,29,07,19,10.10
2023,04,29,07,20,10.20
2023,04,29,07,21,10.30
2023,04,29,07,22,10.50
2023,04,29,07,23,10.60
2023,04,29,07,24,10.70
2023,04,29,07,25,10.90
2023,04,29,07,26,11.00
2023,04,29,07,27,11.20
2023,04,29,07,28,11.40
2023,04,29,07,29,11.50
2023,04,29,07,30,11.60
2023,04,29,07,31,11.80
2023,04,29,07,32,11.90
2023,04,29,07,33,12.10
2023,04,29,07,34,12.20
2023,04,29,07,35,12.40
2023,04,29,07,36,12.50
2023,04,29,07,37,12.70
2023,04,29,07,38,12.80
2023,04,29,07,39,13.00
2023,04,29,07,40,13.10
2023,04,29,07,41,13.30
2023,04,29,07,42,13.30
2023,04,29,07,43,13.40
2023,04,29,07,44,13.40
2023,04,29,07,45,13.50
2023,04,29,07,46,13.50
2023,04,29,07,47,13.60
2023,04,29,07,48,13.60
2023,04,29,07,49,13.60
2023,04,29,07,50,13.60
2023,04,29,07,51,13.60
2023,04,29,07,52,13.70
2023,04,29,07,53,13.70
2023,04,29,07,54,13.70
2023,04,29,07,55,13.80
2023,04,29,07,56,13.80
2023,04,29,07,57,13.80
2023,04,29,07,58,13.90
2023,04,29,07,59,13.90
2023,04,29,08,00,14.00
2023,04,29,08,01,14.00
2023,04,29,08,02,14.10
2023,04,29,08,03,14.10
2023,04,29,08,04,14.10
2023,04,29,08,05,14.10
2023,04,29,08,06,14.20
2023,04,29,08,07,14.20
2023,04,29,08,08,14.30
2023,04,29,08,09,14.40
2023,04,29,08,10,14.50
2023,04,29,08,11,14.60
2023,04,29,08,12,14.70
2023,04,29,08,13,14.80
2023,04,29,08,14,14.90
2023,04,29,08,15,15.00
2023,04,29,08,16,15.10
2023,04,29,08,17,15.10
2023,04,29,08,18,15.20
2023,04,29,08,19,15.20
2023,04,29,08,20,15.30
2023,04,29,08,21,15.30
2023,04,29,08,22,15.30
2023,04,29,08,23,15.30
2023,04,29,08,24,15.40
2023,04,29,08,25,15.40
2023,04,29,08,26,15.40
2023,04,29,08,27,15.40
2023,04,29,08,28,15.40
2023,04,29,08,29,15.40
2023,04,29,08,30,15.40
2023,04,29,08,31,15.40
2023,04,29,08,32,15.50
2023,04,29,08,33,15.50
2023,04,29,08,34,15.60
2023,04,29,08,35,15.70
2023,04,29,08,36,15.80
2023,04,29,08,37,15.80
2023,04,29,08,38,15.90
2023,04,29,08,39,16.00
2023,04,29,08,40,16.10
2023,04,29,08,41,16.20
2023,04,29,08,42,16.30
2023,04,29,08,43,16.40
2023,04,29,08,44,16.50
2023,04,29,08,45,16.60
2023,04,29,08,46,16.70
2023,04,29,08,47,16.90
2023,04,29,08,48,17.10
2023,04,29,08,49,17.20
2023,04,29,08,50,17.30
2023,04,29,08,51,17.40
2023,04,29,08,52,17.60
2023,04,29,08,53,17.70
2023,04,29,08,54,17.80
2023,04,29,08,55,17.90
2023,04,29,08,56,17.90
2023,04,29,08,57,18.00
2023,04,29,08,58,18.10
2023,04,29,08,59,18.20
2023,04,29,09,00,18.20
2023,04,29,09,01,18.20
2023,04,29,09,02,18.20
2023,04,29,09,03,18.30
2023,04,29,09,04,18.30
2023,04,29,09,05,18.30
2023,04,29,09,06,18.30
2023,04,29,09,07,18.30
2023,04,29,09,08,18.30
2023,04,29,09,09,18.30
2023,04,29,09,10,18.30
2023,04,29,09,11,18.30
2023,04,29,09,12,18.30
2023,04,29,09,13,18.20
2023,04,29,09,14,18.20
2023,04,29,09,15,18.20
2023,04,29,09,16,18.20
2023,04,29,09,17,18.20
2023,04,29,09,18,18.10
2023,04,29,09,19,18.00
2023,04,29,09,20,18.00
2023,04,29,09,21,17.90
2023,04,29,09,22,17.90
2023,04,29,09,23,17.80
2023,04,29,09,24,17.80
2023,04,29,09,25,17.80
2023,04,29,09,26,17.80
2023,04,29,09,27,17.80
2023,04,29,09,28,17.80
2023,04,29,09,29,17.80
2023,04,29,09,30,17.70
2023,04,29,09,31,17.70
2023,04,29,09,32,17.60
2023,04,29,09,33,17.60
2023,04,29,09,34,17.60
2023,04,29,09,35,17.60
2023,04,29,09,36,17.60
2023,04,29,09,37,17.60
2023,04,29,09,38,17.50
2023,04,29,09,39,17.50
2023,04,29,09,40,17.40
2023,04,29,09,41,17.40
2023,04,29,09,42,17.40
2023,04,29,09,43,17.40
2023,04,29,09,44,17.40
2023,04,29,09,45,17.50
2023,04,29,09,46,17.50
2023,04,29,09,47,17.60
2023,04,29,09,48,17.60
2023,04,29,09,49,17.60
2023,04,29,09,50,17.60
2023,04,29,09,51,17.60
2023,04,29,09,52,17.70
2023,04,29,09,53,17.70
2023,04,29,09,54,17.70
2023,04,29,09,55,17.80
2023,04,29,09,56,17.90
2023,04,29,09,57,17.90
2023,04,29,09,58,18.00
2023,04,29,09,59,18.10
2023,04,29,10,00,18.10
2023,04,29,10,01,18.20
2023,04,29,10,02,18.30
2023,04,29,10,03,18.40
2023,04,29,10,04,18.40
2023,04,29,10,05,18.50
2023,04,29,10,06,18.60
2023,04,29,10,07,18.70
2023,04,29,10,08,18.70
2023,04,29,10,09,18.80
2023,04,29,10,10,18.80
2023,04,29,10,11,18.80
2023,04,29,10,12,18.80
2023,04,29,10,13,18.80
2023,04,29,10,14,18.80
2023,04,29,10,15,18.80
2023,04,29,10,16,18.70
2023,04,29,10,17,18.70
2023,04,29,10,18,18.70
2023,04,29,10,19,18.70
2023,04,29,10,20,18.60
2023,04,29,10,21,18.50
2023,04,29,10,22,18.40
2023,04,29,10,23,18.30
2023,04,29,10,24,18.20
2023,04,29,10,25,18.10
2023,04,29,10,26,17.90
2023,04,29,10,27,17.80
2023,04,29,10,28,17.60
2023,04,29,10,29,17.40
2023,04,29,10,30,17.30
2023,04,29,10,31,17.20
2023,04,29,10,32,17.10
2023,04,29,10,33,17.00
2023,04,29,10,34,16.90
2023,04,29,10,35,16.90
2023,04,29,10,36,17.00
2023,04,29,10,37,17.00
2023,04,29,10,38,17.10
2023,04,29,10,39,17.10
2023,04,29,10,40,17.20
2023,04,29,10,41,17.20
2023,04,29,10,42,17.30
2023,04,29,10,43,17.30
2023,04,29,10,44,17.40
2023,04,29,10,45,17.50
2023,04,29,10,46,17.60
2023,04,29,10,47,17.70
2023,04,29,10,48,17.80
2023,04,29,10,49,17.80
2023,04,29,10,50,17.90
2023,04,29,10,51,17.90
2023,04,29,10,52,17.90
2023,04,29,10,53,18.00
2023,04,29,10,54,18.00
2023,04,29,10,55,18.00
2023,04,29,10,56,18.10
2023,04,29,10,57,18.10
2023,04,29,10,58,18.10
2023,04,29,10,59,18.20
2023,04,29,11,00,18.30
2023,04,29,11,01,18.30
2023,04,29,11,02,18.40
2023,04,29,11,03,18.40
2023,04,29,11,04,18.50
2023,04,29,11,05,18.50
2023,04,29,11,06,18.60
2023,04,29,11,07,18.70
2023,04,29,11,08,18.70
2023,04,29,11,09,18.70
2023,04,29,11,10,18.70
2023,04,29,11,11,18.70
2023,04,29,11,12,18.70
2023,04,29,11,13,18.70
2023,04,29,11,14,18.70
2023,04,29,11,15,18.70
2023,04,29,11,16,18.70
2023,04,29,11,17,18.70
2023,04,29,11,18,18.70
2023,04,29,11,19,18.80
2023,04,29,11,20,18.70
2023,04,29,11,21,18.70
2023,04,29,11,22,18.70
2023,04,29,11,23,18.60
2023,04,29,11,24,18.50
2023,04,29,11,25,18.50
2023,04,29,11,26,18.40
2023,04,29,11,27,18.30
2023,04,29,11,28,18.30
2023,04,29,11,29,18.20
2023,04,29,11,30,18.20
2023,04,29,11,31,18.20
2023,04,29,11,32,18.10
2023,04,29,11,33,18.00
2023,04,29,11,34,18.00
2023,04,29,11,35,17.90
2023,04,29,11,36,17.90
2023,04,29,11,37,17.90
2023,04,29,11,38,17.90
2023,04,29,11,39,17.80
2023,04,29,11,40,17.80
2023,04,29,11,41,17.80
2023,04,29,11,42,17.70
2023,04,29,11,43,17.80
2023,04,29,11,44,17.80
2023,04,29,11,45,17.80
2023,04,29,11,46,17.90
2023,04,29,11,47,18.00
2023,04,29,11,48,18.10
2023,04,29,11,49,18.20
2023,04,29,11,50,18.30
2023,04,29,11,51,18.50
2023,04,29,11,52,18.60
2023,04,29,11,53,18.70
2023,04,29,11,54,18.80
2023,04,29,11,55,18.90
2023,04,29,11,56,19.00
2023,04,29,11,57,19.10
2023,04,29,11,58,19.20
2023,04,29,11,59,19.30
2023,04,29,12,00,19.40
2023,04,29,12,01,19.60
2023,04,29,12,02,19.70
2023,04,29,12,03,19.80
2023,04,29,12,04,19.90
2023,04,29,12,05,20.00
2023,04,29,12,06,20.10
2023,04,29,12,07,20.20
2023,04,29,12,08,20.30
2023,04,29,12,09,20.30
2023,04,29,12,10,20.30
2023,04,29,12,11,20.30
2023,04,29,12,12,20.30
2023,04,29,12,13,20.30
2023,04,29,12,14,20.30
2023,04,29,12,15,20.30
2023,04,29,12,16,20.40
2023,04,29,12,17,20.40
2023,04,29,12,18,20.50
2023,04,29,12,19,20.50
2023,04,29,12,20,20.60
2023,04,29,12,21,20.60
2023,04,29,12,22,20.60
2023,04,29,12,23,20.60
2023,04,29,12,24,20.60
2023,04,29,12,25,20.60
2023,04,29,12,26,20.60
2023,04,29,12,27,20.50
2023,04,29,12,28,20.50
2023,04,29,12,29,20.40
2023,04,29,12,30,20.40
2023,04,29,12,31,20.30
2023,04,29,12,32,20.30
2023,04,29,12,33,20.30
2023,04,29,12,34,20.30
2023,04,29,12,35,20.20
2023,04,29,12,36,20.20
2023,04,29,12,37,20.20
2023,04,29,12,38,20.10
2023,04,29,12,39,20.10
2023,04,29,12,40,20.10
2023,04,29,12,41,20.10
2023,04,29,12,42,20.10
2023,04,29,12,43,20.10
2023,04,29,12,44,20.20
2023,04,29,12,45,20.20
2023,04,29,12,46,20.30
2023,04,29,12,47,20.40
2023,04,29,12,48,20.40
2023,04,29,12,49,20.50
2023,04,29,12,50,20.50
2023,04,29,12,51,20.60
2023,04,29,12,52,20.60
2023,04,29,12,53,20.60
2023,04,29,12,54,20.50
2023,04,29,12,55,20.60
2023,04,29,12,56,20.60
2023,04,29,12,57,20.60
2023,04,29,12,58,20.60
2023,04,29,12,59,20.60
2023,04,29,13,00,20.70
2023,04,29,13,01,20.70
2023,04,29,13,02,20.70
2023,04,29,13,03,20.70
2023,04,29,13,04,20.70
2023,04,29,13,05,20.70
2023,04,29,13,06,20.80
2023,04,29,13,07,20.90
2023,04,29,13,08,20.90
2023,04,29,13,09,20.90
2023,04,29,13,10,20.90
2023,04,29,13,11,20.90
2023,04,29,13,12,20.90
2023,04,29,13,13,21.00
2023,04,29,13,14,21.00
2023,04,29,13,15,21.00
2023,04,29,13,16,21.00
2023,04,29,13,17,21.00
2023,04,29,13,18,20.90
2023,04,29,13,19,20.90
2023,04,29,13,20,20.90
2023,04,29,13,21,20.90
2023,04,29,13,22,20.90
2023,04,29,13,23,20.80
2023,04,29,13,24,20.90
2023,04,29,13,25,20.90
2023,04,29,13,26,20.90
2023,04,29,13,27,20.90
2023,04,29,13,28,20.90
2023,04,29,13,29,20.90
2023,04,29,13,30,20.90
2023,04,29,13,31,20.80
2023,04,29,13,32,20.80
2023,04,29,13,33,20.90
2023,04,29,13,34,20.90
2023,04,29,13,35,20.90
2023,04,29,13,36,20.90
2023,04,29,13,37,20.90
2023,04,29,13,38,20.90
2023,04,29,13,39,20.90
2023,04,29,13,40,21.00
2023,04,29,13,41,21.00
2023,04,29,13,42,21.00
2023,04,29,13,43,21.00
2023,04,29,13,44,21.00
2023,04,29,13,45,20.90
2023,04,29,13,46,20.90
2023,04,29,13,47,20.90
2023,04,29,13,48,20.90
2023,04,29,13,49,20.90
2023,04,29,13,50,20.90
2023,04,29,13,51,20.90
2023,04,29,13,52,20.90
2023,04,29,13,53,20.80
2023,04,29,13,54,20.80
2023,04,29,13,55,20.80
2023,04,29,13,56,20.70
2023,04,29,13,57,20.70
2023,04,29,13,58,20.70
2023,04,29,13,59,20.70
2023,04,29,14,00,20.70
2023,04,29,14,01,20.70
2023,04,29,14,02,20.80
2023,04,29,14,03,20.80
2023,04,29,14,04,20.80
2023,04,29,14,05,20.90
2023,04,29,14,06,20.90
2023,04,29,14,07,20.90
2023,04,29,14,08,20.90
2023,04,29,14,09,21.00
2023,04,29,14,10,21.00
2023,04,29,14,11,20.90
2023,04,29,14,12,20.90
2023,04,29,14,13,20.90
2023,04,29,14,14,20.80
2023,04,29,14,15,20.80
2023,04,29,14,16,20.70
2023,04,29,14,17,20.60
2023,04,29,14,18,20.50
2023,04,29,14,19,20.40
2023,04,29,14,20,20.40
2023,04,29,14,21,20.40
2023,04,29,14,22,20.30
2023,04,29,14,23,20.40
2023,04,29,14,24,20.40
2023,04,29,14,25,20.40
2023,04,29,14,26,20.40
2023,04,29,14,27,20.40
2023,04,29,14,28,20.40
2023,04,29,14,29,20.40
2023,04,29,14,30,20.40
2023,04,29,14,31,20.40
2023,04,29,14,32,20.40
2023,04,29,14,33,20.40
2023,04,29,14,34,20.40
2023,04,29,14,35,20.40
2023,04,29,14,36,20.40
2023,04,29,14,37,20.50
2023,04,29,14,38,20.50
2023,04,29,14,39,20.50
2023,04,29,14,40,20.60
2023,04,29,14,41,20.60
2023,04,29,14,42,20.60
2023,04,29,14,43,20.60
2023,04,29,14,44,20.60
2023,04,29,14,45,20.60
2023,04,29,14,46,20.60
2023,04,29,14,47,20.70
2023,04,29,14,48,20.70
2023,04,29,14,49,20.80
2023,04,29,14,50,20.80
2023,04,29,14,51,20.80
2023,04,29,14,52,20.90
2023,04,29,14,53,20.90
2023,04,29,14,54,20.90
2023,04,29,14,55,21.00
2023,04,29,14,56,21.00
2023,04,29,14,57,20.90
2023,04,29,14,58,21.00
2023,04,29,14,59,21.00
2023,04,29,15,00,20.90
2023,04,29,15,01,20.90
2023,04,29,15,02,20.80
2023,04,29,15,03,20.80
2023,04,29,15,04,20.70
2023,04,29,15,05,20.70
2023,04,29,15,06,20.70
2023,04,29,15,07,20.70
2023,04,29,15,08,20.70
2023,04,29,15,09,20.60
2023,04,29,15,10,20.60
2023,04,29,15,11,20.60
2023,04,29,15,12,20.60
2023,04,29,15,13,20.60
2023,04,29,15,14,20.70
2023,04,29,15,15,20.70
2023,04,29,15,16,20.70
2023,04,29,15,17,20.80
2023,04,29,15,18,20.80
2023,04,29,15,19,20.90
2023,04,29,15,20,20.90
2023,04,29,15,21,20.90
2023,04,29,15,22,20.90
2023,04,29,15,23,20.90
2023,04,29,15,24,20.90
2023,04,29,15,25,20.80
2023,04,29,15,26,20.80
2023,04,29,15,27,20.80
2023,04,29,15,28,20.70
2023,04,29,15,29,20.60
2023,04,29,15,30,20.60
2023,04,29,15,31,20.50
2023,04,29,15,32,20.40
2023,04,29,15,33,20.30
2023,04,29,15,34,20.30
2023,04,29,15,35,20.30
2023,04,29,15,36,20.30
2023,04,29,15,37,20.30
2023,04,29,15,38,20.40
2023,04,29,15,39,20.40
2023,04,29,15,40,20.40
2023,04,29,15,41,20.50
2023,04,29,15,42,20.40
2023,04,29,15,43,20.40
2023,04,29,15,44,20.40
2023,04,29,15,45,20.30
2023,04,29,15,46,20.30
2023,04,29,15,47,20.30
2023,04,29,15,48,20.30
2023,04,29,15,49,20.30
2023,04,29,15,50,20.30
2023,04,29,15,51,20.30
2023,04,29,15,52,20.40
2023,04,29,15,53,20.40
2023,04,29,15,54,20.40
2023,04,29,15,55,20.40
2023,04,29,15,56,20.30
2023,04,29,15,57,20.30
2023,04,29,15,58,20.30
2023,04,29,15,59,20.30
2023,04,29,16,00,20.30
2023,04,29,16,01,20.20
2023,04,29,16,02,20.20
2023,04,29,16,03,20.20
2023,04,29,16,04,20.20
2023,04,29,16,05,20.20
2023,04,29,16,06,20.20
2023,04,29,16,07,20.20
2023,04,29,16,08,20.30
2023,04,29,16,09,20.30
2023,04,29,16,10,20.30
2023,04,29,16,11,20.30
2023,04,29,16,12,20.20
2023,04,29,16,13,20.20
2023,04,29,16,14,20.10
2023,04,29,16,15,20.10
2023,04,29,16,16,20.10
2023,04,29,16,17,20.10
2023,04,29,16,18,20.10
2023,04,29,16,19,20.10
2023,04,29,16,20,20.00
2023,04,29,16,21,19.90
2023,04,29,16,22,20.00
2023,04,29,16,23,20.00
2023,04,29,16,24,20.00
2023,04,29,16,25,20.00
2023,04,29,16,26,20.00
2023,04,29,16,27,20.00
2023,04,29,16,28,20.10
2023,04,29,16,29,20.10
2023,04,29,16,30,20.10
2023,04,29,16,31,20.20
2023,04,29,16,32,20.20
2023,04,29,16,33,20.20
2023,04,29,16,34,20.30
2023,04,29,16,35,20.30
2023,04,29,16,36,20.30
2023,04,29,16,37,20.30
2023,04,29,16,38,20.40
2023,04,29,16,39,20.40
2023,04,29,16,40,20.40
2023,04,29,16,41,20.50
2023,04,29,16,42,20.50
2023,04,29,16,43,20.60
2023,04,29,16,44,20.60
2023,04,29,16,45,20.60
2023,04,29,16,46,20.60
2023,04,29,16,47,20.60
2023,04,29,16,48,20.60
2023,04,29,16,49,20.60
2023,04,29,16,50,20.60
2023,04,29,16,51,20.60
2023,04,29,16,52,20.60
2023,04,29,16,53,20.60
2023,04,29,16,54,20.60
2023,04,29,16,55,20.60
2023,04,29,16,56,20.70
2023,04,29,16,57,20.60
2023,04,29,16,58,20.60
2023,04,29,16,59,20.60
2023,04,29,17,00,20.60
2023,04,29,17,01,20.60
2023,04,29,17,02,20.70
2023,04,29,17,03,20.70
2023,04,29,17,04,20.70
2023,04,29,17,05,20.70
2023,04,29,17,06,20.70
2023,04,29,17,07,20.70
2023,04,29,17,08,20.70
2023,04,29,17,09,20.70
2023,04,29,17,10,20.70
2023,04,29,17,11,20.60
2023,04,29,17,12,20.60
2023,04,29,17,13,20.60
2023,04,29,17,14,20.60
2023,04,29,17,15,20.70
2023,04,29,17,16,20.70
2023,04,29,17,17,20.70
2023,04,29,17,18,20.70
2023,04,29,17,19,20.70
2023,04,29,17,20,20.70
2023,04,29,17,21,20.70
2023,04,29,17,22,20.70
2023,04,29,17,23,20.80
2023,04,29,17,24,20.80
2023,04,29,17,25,20.80
2023,04,29,17,26,20.80
2023,04,29,17,27,20.80
2023,04,29,17,28,20.80
2023,04,29,17,29,20.80
2023,04,29,17,30,20.80
2023,04,29,17,31,20.80